Location: Braden Valley Church
(38.0012°N, 88.6106°W)
Time: 03:09:59
(UTC+00:00)

Meteor 2-15 Rocket - Pass Details

Date: 08 December 2021
Orbit: 939 x 956 km, 82.5° (Epoch: 21 January)

Event Time Altitude Azimuth Distance (km) Brightness Sun altitude
Rises 23:43:42 0° 174° (S) 3,613 7.7 -13.3°
Reaches altitude 10° 23:46:14 10° 171° (S) 2,670 6.9 -13.7°
Maximum altitude 23:52:12 59° 93° (E) 1,090 4.5 -14.8°
Drops below altitude 10° 23:58:11 10° 15° (NNE) 2,675 6.5 -16.0°
Sets 00:00:43 0° 12° (NNE) 3,621 7.2 -16.5°
